Regional Weather Roundup
Issued by NWS

Home | Current Version | Previous Version | Graphics & Text | Print | Product List | Glossary On
Versions: 1 2 3 4 5 6 7 8 9 10 11 12 13 14 15 16 17 18 19 20 21 22 23 24 25 26 27 28 29 30 31 32 33 34 35 36 37 38 39 40 41 42 43 44 45 46 47 48 49 50
000
ASUS45 KSLC 070010
RWRUT

UTAH REGIONAL WEATHER ROUNDUP
NATIONAL WEATHER SERVICE SALT LAKE CITY UT
500 PM MST TUE DEC 06 2016

UTZ001>011-023>025-070100-

NORTHERN UTAH

CITY           SKY/WX    TMP DP  RH WIND       PRES   REMARKS
BRIGHAM CITY     N/A     30  15  54 W3        29.84R
HILL AFB       NOT AVBL
LOGAN          PTCLDY    23  15  71 SW3       29.83R
OGDEN          MOCLDY    25  13  60 S6        29.82R WCI  18
SALT LAKE CITY CLOUDY    28  21  75 CALM      29.83R
TOOELE VALLEY  CLOUDY    30  21  69 N3        29.83R
WENDOVER       MOCLDY    30  12  47 NW15      29.85R WCI  19
HEBER CITY     CLOUDY    27  18  69 NE6       29.74R WCI  20
WEST JORDAN    CLOUDY    27  25  93 N8        29.83R WCI  18

$$

UTZ011>015-024>027-070100-

CENTRAL/NORTHEAST UTAH

CITY           SKY/WX    TMP DP  RH WIND       PRES   REMARKS
PROVO AIRPORT  CLOUDY    30  20  66 NW10      29.82R WCI  21
MOAB/CANYONLAN CLEAR     33   6  32 NW8       29.67S WCI  26
DELTA          PTCLDY    32   9  37 N15G21    29.78R WCI  22
PRICE          MOCLDY    29   5  36 CALM      29.67R
RICHFIELD      PTCLDY    37  10  32 W15G29    29.69R WCI  28
ROOSEVELT      MOCLDY    30   0  27 CALM      29.74R
VERNAL         CLOUDY    28  -2  27 N3        29.72R

$$

UTZ013>016-019>022-027-070100-

SOUTHERN UTAH

CITY           SKY/WX    TMP DP  RH WIND       PRES   REMARKS
BRYCE CANYON   CLEAR     32  11  41 SW17      29.72R WCI  21
CEDAR CITY     CLEAR     42  14  32 SW13G25   29.72R
MILFORD        MOCLDY    35   3  26 NW16G32   29.71R WCI  25
ST GEORGE      CLOUDY    54  21  28 SW3       29.77S
HANKSVILLE     CLEAR     36   5  27 CALM      29.69F
KANAB          CLEAR     48  16  27 SW12G17   29.78S
BLANDING       CLEAR     39  16  39 S8        29.78S WCI  33

$$

REGIONAL REPORTS     COLORADO/ARIZONA

CITY           SKY/WX    TMP DP  RH WIND       PRES   REMARKS
CRAIG, CO      CLOUDY    25   8  48 NE3       29.68S
GRAND JUNCTION CLEAR     27  10  49 CALM      29.68F
RIFLE, CO      CLOUDY    29  11  47 CALM      29.68S
MONTROSE, CO   CLOUDY    33  14  45 CALM      29.68S
CORTEZ, CO     MOCLDY    39  19  44 S8        29.73F WCI  33
COLORADO CITY    N/A     46  21  36 W12G18    29.79S
PAGE, AZ       CLEAR     53  10  18 W5        29.70S
GRAND CANYON   PTCLDY    40  19  43 SW13G22   29.83S WCI  32
KINGMAN, AZ    PTCLDY    52  13  21 S15       29.82S
FLAGSTAFF, AZ  MOCLDY    37  25  61 SW20G32   29.85R WCI  27

$$

REGIONAL REPORTS    NEVADA/IDAHO/WYOMING

CITY           SKY/WX    TMP DP  RH WIND       PRES   REMARKS
LAS VEGAS, NV  PTCLDY    60  17  18 E3        29.74S
ELY, NY        CLEAR     29   8  41 NW10      29.79R WCI  20
ELKO, NV       PTCLDY    27  15  61 W8        29.85R WCI  19
POCATELLO, ID  LGT SNOW  20  17  88 W3        29.85R VSB 3/4
BURLEY, ID     CLOUDY    21  17  84 W8        29.88R WCI  11
FORT BRIDGER,  CLOUDY     6   3  89 SW3       29.77R
EVANSTON, WY   CLOUDY     8   2  76 E8        29.72R WCI  -4
ROCK SPRINGS,  CLOUDY    15   3  59 W5        29.73R WCI   8

$$



USA.gov is the U.S. government's official web portal to all federal, state and local government web resources and services.